This demonstration page uses our WeatherBlox Daily Observations layout. Learn more.

Left ArrowRight Arrow

41.86663, -103.66717

Hourly Observations for July 12, 2018

Temp ( °F °C ) Dew Point ( °F °C ) Humidity (%) Winds ( mph kmh ) Pressure ( in mb ) Visibility ( mi km ) Precip ( " mm )
12:53 am 00:53 Clear 75 23.9 64 17.8 69 69 NE 6 9 29.86 1011 10 16.0934 N/A
1:53 am 01:53 Clear 73 22.8 61 16.1 66 66 NW 5 7 29.87 1011 10 16.0934 N/A
2:53 am 02:53 Clear 68 20 64 17.8 87 87 NW 8 13 29.88 1012 10 16.0934 N/A
3:53 am 03:53 Clear 67 19.4 59 15 76 76 NNE 14 22 29.89 1012 10 16.0934 N/A
4:53 am 04:53 Clear 69 20.6 59 15 70 70 NE 13 20 29.88 1012 10 16.0934 N/A
5:53 am 05:53 Sunny 68 20 60 15.6 76 76 ENE 7 11 29.91 1013 10 16.0934 N/A
6:53 am 06:53 Sunny 70 21.1 60 15.6 71 71 N N/A 29.94 1014 10 16.0934 N/A
7:53 am 07:53 Sunny 72 22.2 62 16.7 71 71 ENE 12 19 29.96 1015 10 16.0934 N/A
8:53 am 08:53 Sunny 75 23.9 63 17.2 66 66 ENE 12 19 29.96 1015 10 16.0934 N/A
9:53 am 09:53 Sunny 79 26.1 65 18.3 62 62 ENE 10 17 29.95 1014 10 16.0934 N/A
10:53 am 10:53 Sunny 81 27.2 65 18.3 58 58 ESE 10 17 29.95 1014 10 16.0934 N/A
11:53 am 11:53 Sunny 85 29.4 65 18.3 51 51 SE 9 15 29.94 1014 10 16.0934 N/A
12:53 pm 12:53 Sunny 87 30.6 65 18.3 48 48 undefined N/A 29.93 1013 10 16.0934 N/A
1:53 pm 13:53 Sunny 89 31.7 65 18.3 45 45 ESE 8 13 29.91 1013 10 16.0934 N/A
2:46 pm 14:46 Sunny with Nearby Thunderstorms 90 32.2 65 18.3 44 44 ESE 14 22 29.71 1006 10 16.0934 N/A
2:53 pm 14:53 Sunny with Nearby Thunderstorms 91 32.8 65 18.3 42 42 ESE 13 20 29.88 1012 10 16.0934 N/A
3:53 pm 15:53 Partly Cloudy with Nearby Thunderstorms 81 27.2 59 15 47 47 N 21 33 29.92 1013 10 16.0934 N/A
4:53 pm 16:53 Mostly Sunny 73 22.8 60 15.6 64 64 N 18 30 29.94 1014 10 16.0934 N/A
5:53 pm 17:53 Sunny 79 26.1 64 17.8 60 60 NNE 24 39 29.9 1013 10 16.0934 N/A
6:20 pm 18:20 Mostly Cloudy 77 25 64 18 65 65 E 20 31 29.85 1011 10 16.0934 N/A
6:53 pm 18:53 Mostly Sunny 76 24.4 67 19.4 74 74 ENE 16 26 29.93 1014 10 16.0934 N/A
7:53 pm 19:53 Partly Cloudy 73 22.8 64 17.8 74 74 ESE 14 22 29.98 1015 10 16.0934 N/A
8:53 pm 20:53 Mostly Cloudy 70 21.1 66 18.9 87 87 ENE 12 19 29.99 1016 10 16.0934 N/A
9:00 pm 21:00 Partly Cloudy 69 20.6 66 18.9 90 90 ENE 8 13 29.94 1014 10 16.0934 N/A
9:09 pm 21:09 Mostly Cloudy 69 20.6 66 18.9 90 90 NE 8 13 29.94 1014 10 16.0934 N/A
9:16 pm 21:16 Mostly Clear 70 21 66 19 88 88 ENE 6 9 29.94 1014 10 16.0934 N/A
9:53 pm 21:53 Clear 68 20 66 18.9 93 93 E 3 6 30 1016 10 16.0934 N/A
10:53 pm 22:53 Clear 67 19.4 66 18.9 97 97 N N/A 30.02 1017 10 16.0934 N/A
11:21 pm 23:21 Mostly Cloudy 67 19.4 66 18.9 97 97 N N/A 29.94 1014 10 16.0934 N/A
11:30 pm 23:30 Cloudy 68 20 66 18.9 93 93 E 3 6 29.94 1014 10 16.0934 N/A
11:53 pm 23:53 Cloudy 68 20 66 18.9 93 93 E 5 7 30.01 1016 10 16.0934 N/A

Powered by AerisWeather